sat.trackr.live / text

‹ back to catalog

ONEWEB-0160

NORAD 48060 · 2021-025U

PAYLOAD ACTIVE UNKNOWN

§ Identity

Operator
Country
UK
Launch date
2021-03-25
Launch site
VOSTO
Launch vehicle
Mass (kg)
RCS (m²)

Purposes: comms

External: N2YO · Heavens-Above · Gunter

§ Orbital elements

Epoch: 2026-09-03T14:25:59.975040Z

Period
109.63 min
Inclination
87.8943°
Eccentricity
0.0002647
Mean motion
13.13469497 rev/d
Perigee alt
1,207.8 km
Apogee alt
1,211.8 km
Semi-major
7,587.9 km
B*
4.4744e-4
RAAN
304.6274°
Arg perigee
100.6899°
Mean anomaly
259.4528°
Rev number
26,385

§ Raw data

ONEWEB-01601 48060U 21025U   26246.60138860  .00000176  00000+0  44744-3 0  99992 48060  87.8943 304.6274 0002647 100.6899 259.4528 13.13469497263853

JSON: /api/v1/satellites/48060 · /tle

For live sub-satellite position, see the globe view (requires WebGL).

§ Visibility from observer

Set your observer location to see the next 7 days of passes ≥ 10°. The values pass through the URL so the page stays shareable.

No JS? Fill the form by hand. The geolocation button needs JavaScript.